N7BBI Weather Reports


time (UTC)temp
F
wind
direction
speed
knots
gust
knots
rain 1hr
in
rain 24hr
in
rain mn
in
humidity
%
barometer
mb
20260504044548 60 222 1.7 5.2 0.00 0.00 0.00 52 1005.7
20260504043042 60 218 2.6 5.2 0.00 0.00 0.00 52 1005.8
20260504011533 68 220 0.9 6.1 0.00 0.00 0.00 43 1005.1
20260504010031 69 212 5.2 9.6 0.00 0.00 0.00 42 1004.9
20260504004536 70 233 6.1 11.3 0.00 0.00 0.00 41 1004.9
20260504003034 70 201 7.0 14.8 0.00 0.00 0.00 40 1004.8
20260504001529 71 261 6.1 14.8 0.00 0.00 0.00 40 1004.8
20260504000028 72 197 6.1 16.5 0.00 0.00 0.00 40 1004.7
20260503234538 72 202 9.6 17.4 0.00 0.00 0.00 40 1004.7
20260503233025 71 226 7.8 16.5 0.00 0.00 0.00 41 1004.8
20260503231524 71 237 9.6 16.5 0.00 0.00 0.00 41 1005.0
20260503230022 72 225 8.7 20.0 0.00 0.00 0.00 42 1005.2
20260503224521 72 205 8.7 17.4 0.00 0.00 0.00 41 1005.0
20260503223023 72 195 12.2 21.7 0.00 0.00 0.00 40 1005.1
20260503221518 72 222 9.6 21.7 0.00 0.00 0.00 38 1005.1
20260503220018 73 210 10.4 20.0 0.00 0.00 0.00 38 1005.1
20260503214517 73 260 11.3 19.1 0.00 0.00 0.00 38 1005.2
20260503213016 73 202 11.3 18.2 0.00 0.00 0.00 39 1005.1
20260503211513 73 226 7.8 16.5 0.00 0.00 0.00 38 1005.4
20260503210012 73 212 10.4 19.1 0.00 0.00 0.00 38 1005.6
20260503204510 72 249 8.7 20.9 0.00 0.00 0.00 39 1005.8
20260503203011 72 267 8.7 21.7 0.00 0.00 0.00 39 1005.9
20260503201505 71 197 7.8 19.1 0.00 0.00 0.00 40 1006.0
20260503200002 70 212 7.0 14.8 0.00 0.00 0.00 42 1006.2
20260503194600 70 226 8.7 19.1 0.00 0.00 0.00 42 1006.5
20260503193100 70 257 7.8 19.1 0.00 0.00 0.00 43 1006.7
20260503191612 69 207 12.2 20.0 0.00 0.00 0.00 41 1006.8
20260503190051 69 170 8.7 20.9 0.00 0.00 0.00 41 1006.8
20260503184556 69 192 11.3 19.1 0.00 0.00 0.00 44 1007.0
20260503183100 68 225 9.6 18.2 0.00 0.00 0.00 44 1007.3
20260503181543 67 206 11.3 19.1 0.00 0.00 0.00 43 1007.6
20260503180044 66 240 10.4 20.9 0.00 0.00 0.00 47 1007.6
20260503174536 65 220 12.2 20.9 0.00 0.00 0.00 46 1008.0
20260503173059 64 214 13.9 23.5 0.00 0.00 0.00 45 1008.4
20260503171529 64 216 10.4 22.6 0.00 0.00 0.00 45 1008.5
20260503081511 49 170 7.8 14.8 0.00 0.00 0.00 57 1014.3